[sarex] 2 Line ISS Keps 9-21

Dave Larsen PhD doc at volcano.net
Thu Sep 21 10:27:37 PDT 2006


ISS
1 25544U 98067A   06264.67638889  .00017997  00000-0  11679-3 0  7148
2 25544 051.6356 050.4133 0011971 010.8612 024.2832 15.75999264448386


More information about the SAREX mailing list